User: anonymous   Login
Location: Oberwangen
(47.4286°N, 8.9679°E)
Time: 10:50:44
(UTC+00:00)
Language:

ALOS 2 - Orbit

View from above orbital plane
View from above orbital plane
View from above satellite
View from above satellite

Ground track
Ground track

The orbit data is extracted from the following two-line orbital elements,

1 39766U 14029A   21265.84931129 -.00000109  00000-0 -77134-5 0  9999
2 39766  97.9221   1.8174 0001442  88.4785 271.6596 14.79470433396067
Epoch (UTC): 22 September 2021 20:23:00
Eccentricity: 0.0001442
inclination: 97.9221°
perigee height: 630 km
apogee height: 632 km
right ascension of ascending node: 1.8174°
argument of perigee: 88.4785°
revolutions per day: 14.79470433
mean anomaly at epoch: 271.6596°
orbit number at epoch: 39606

The dashed part of the orbit path shows where the satellite is in the earth's shadow,  

DLR